IZ1VWE-3 Weather Reports


Display with metric or nautical units.
time (UTC)temp
F
wind
direction
speed
MPH
gust
MPH
rain 1hr
in
rain 24hr
in
rain mn
in
humidity
%
barometer
mb
20260507101106 66 0.0 0.0 0.00 0.00 0.00 58 1011.3
20260507095105 73 0.0 0.0 0.00 0.00 0.00 46 1011.3
20260507093105 77 0.0 0.0 0.00 0.00 0.00 42 1011.2
20260507091105 76 0.0 0.0 0.00 0.00 0.00 42 1011.1
20260507085104 76 0.0 0.0 0.00 0.00 0.00 42 1011.0
20260507083104 70 0.0 0.0 0.00 0.00 0.00 48 1010.6
20260507081104 65 0.0 0.0 0.00 0.00 0.00 53 1010.5
20260507075104 65 0.0 0.0 0.00 0.00 0.00 52 1010.4
20260507073103 68 0.0 0.0 0.00 0.00 0.00 48 1010.2
20260507071103 70 0.0 0.0 0.00 0.00 0.00 46 1010.3
20260507065102 70 0.0 0.0 0.00 0.00 0.00 45 1010.0
20260507063102 68 0.0 0.0 0.00 0.00 0.00 49 1010.0
20260507061102 66 0.0 0.0 0.00 0.00 0.00 50 1009.9
20260507055102 64 0.0 0.0 0.00 0.00 0.00 54 1009.7
20260507053101 63 0.0 0.0 0.00 0.00 0.00 55 1009.8
20260507051101 62 0.0 0.0 0.00 0.00 0.00 58 1009.6
20260507045101 61 0.0 0.0 0.00 0.00 0.00 61 1009.3
20260507043100 60 0.0 0.0 0.00 0.00 0.00 63 1009.2
20260507041100 62 0.0 0.0 0.00 0.00 0.00 60 1009.0
20260507035100 61 0.0 0.0 0.00 0.00 0.00 61 1009.0
20260507033059 61 0.0 0.0 0.00 0.00 0.00 60 1009.1
20260507031059 61 0.0 0.0 0.00 0.00 0.00 60 1009.0
20260507025059 61 0.0 0.0 0.00 0.00 0.00 61 1008.9
20260507023102 62 0.0 0.0 0.00 0.00 0.00 60 1009.0
20260507021058 61 0.0 0.0 0.00 0.00 0.00 60 1008.9
20260507015058 62 0.0 0.0 0.00 0.00 0.00 59 1009.0
20260507013058 62 0.0 0.0 0.00 0.00 0.00 59 1008.9
20260507011057 61 0.0 0.0 0.00 0.00 0.00 59 1009.0
20260507005057 61 0.0 0.0 0.00 0.00 0.00 61 1009.1
20260507003056 60 0.0 0.0 0.00 0.00 0.00 61 1008.9
20260507001056 60 0.0 0.0 0.00 0.00 0.00 62 1009.0
20260506235056 61 0.0 0.0 0.00 0.00 0.00 60 1009.0
20260506233056 61 0.0 0.0 0.00 0.00 0.00 60 1009.1
20260506231055 62 0.0 0.0 0.00 0.00 0.00 57 1009.1
20260506225055 62 0.0 0.0 0.00 0.00 0.00 56 1009.1
20260506223055 62 0.0 0.0 0.00 0.00 0.00 57 1009.1
20260506221054 63 0.0 0.0 0.00 0.00 0.00 57 1009.1
20260506215054 61 0.0 0.0 0.00 0.00 0.00 58 1009.2
20260506213054 60 0.0 0.0 0.00 0.00 0.00 59 1009.1
20260506211053 62 0.0 0.0 0.00 0.00 0.00 58 1009.1
20260506205053 62 0.0 0.0 0.00 0.00 0.00 58 1009.1
20260506203053 62 0.0 0.0 0.00 0.00 0.00 59 1008.8
20260506201052 62 0.0 0.0 0.00 0.00 0.00 58 1008.8
20260506195052 62 0.0 0.0 0.00 0.00 0.00 58 1008.5
20260506193052 62 0.0 0.0 0.00 0.00 0.00 58 1008.3
20260506191051 62 0.0 0.0 0.00 0.00 0.00 59 1008.1
20260506185051 63 0.0 0.0 0.00 0.00 0.00 59 1007.7
20260506183051 62 0.0 0.0 0.00 0.00 0.00 59 1007.5
20260506181050 64 0.0 0.0 0.00 0.00 0.00 60 1007.3
20260506175050 64 0.0 0.0 0.00 0.00 0.00 60 1007.0
20260506173050 63 0.0 0.0 0.00 0.00 0.00 59 1006.9
20260506171050 62 0.0 0.0 0.00 0.00 0.00 60 1006.9
20260506165049 65 0.0 0.0 0.00 0.00 0.00 55 1006.7
20260506163049 66 0.0 0.0 0.00 0.00 0.00 53 1006.9
20260506161049 67 0.0 0.0 0.00 0.00 0.00 53 1006.9
20260506155048 65 0.0 0.0 0.00 0.00 0.00 57 1006.7
20260506153048 69 0.0 0.0 0.00 0.00 0.00 51 1006.8
20260506151048 71 0.0 0.0 0.00 0.00 0.00 51 1006.7
20260506145047 67 0.0 0.0 0.00 0.00 0.00 55 1006.7
20260506143047 69 0.0 0.0 0.00 0.00 0.00 53 1006.6
20260506141047 69 0.0 0.0 0.00 0.00 0.00 50 1006.7
20260506135046 70 0.0 0.0 0.00 0.00 0.00 50 1006.9
20260506133046 71 0.0 0.0 0.00 0.00 0.00 47 1006.9
20260506131046 71 0.0 0.0 0.00 0.00 0.00 51 1006.9
20260506125045 72 0.0 0.0 0.00 0.00 0.00 49 1006.9
20260506123045 72 0.0 0.0 0.00 0.00 0.00 51 1006.7
20260506121045 72 0.0 0.0 0.00 0.00 0.00 55 1006.5
20260506115044 72 0.0 0.0 0.00 0.00 0.00 55 1006.4
20260506113044 71 0.0 0.0 0.00 0.00 0.00 55 1006.6
20260506111044 68 0.0 0.0 0.00 0.00 0.00 60 1006.4
20260506105043 70 0.0 0.0 0.00 0.00 0.00 57 1006.5
20260506103043 71 0.0 0.0 0.00 0.00 0.00 56 1006.5